Previsão horária em Senchity

Hoje, 28 Novembro, Sábado

Tempo Temperatura Precipitação Vento Pressão Humidade
00:00 +1°C° 0.7 mm 2 m/s 744 mmHg 98%
01:00 +1°C° 0.7 mm 2 m/s 745 mmHg 98%
02:00 +1°C° 0.7 mm 2 m/s 745 mmHg 98%
03:00 +1°C° 0.4 mm 2 m/s 745 mmHg 97%
04:00 +2°C° 0.4 mm 2 m/s 746 mmHg 97%
05:00 +3°C° 0.4 mm 1 m/s 746 mmHg 97%
06:00 +3°C° 0.1 mm 1 m/s 746 mmHg 97%
07:00 +2°C° 0.1 mm 2 m/s 747 mmHg 97%
08:00 +2°C° 0.1 mm 2 m/s 748 mmHg 97%
09:00 +1°C° 0.1 mm 2 m/s 748 mmHg 96%
10:00 +1°C° 0.1 mm 2 m/s 749 mmHg 96%
11:00 +1°C° 0.1 mm 2 m/s 749 mmHg 95%
12:00 +1°C° 0.1 mm 2 m/s 750 mmHg 94%
13:00 +1°C° 0.1 mm 2 m/s 750 mmHg 93%
14:00 +1°C° 0.1 mm 2 m/s 750 mmHg 91%
15:00 +1°C° 0 mm 2 m/s 751 mmHg 93%
16:00 -1°C° 0 mm 2 m/s 751 mmHg 94%
17:00 -1°C° 0 mm 2 m/s 751 mmHg 95%
18:00 +1°C° 0 mm 1 m/s 752 mmHg 95%
19:00 +1°C° 0 mm 1 m/s 752 mmHg 94%
20:00 0°C° 0 mm 1 m/s 753 mmHg 93%
21:00 +1°C° 0 mm 1 m/s 753 mmHg 92%
22:00 +1°C° 0 mm 1 m/s 753 mmHg 91%
23:00 +1°C° 0 mm 1 m/s 753 mmHg 90%

Amanhã, 29 Novembro, Domingo

Tempo Temperatura Precipitação Vento Pressão Humidade
00:00 -1°C° 0 mm 2 m/s 754 mmHg 90%
01:00 -1°C° 0 mm 2 m/s 754 mmHg 89%
02:00 -1°C° 0 mm 2 m/s 754 mmHg 89%
03:00 -1°C° 0 mm 2 m/s 754 mmHg 89%
04:00 -1°C° 0 mm 2 m/s 754 mmHg 89%
05:00 -1°C° 0 mm 2 m/s 754 mmHg 89%
06:00 -1°C° 0 mm 3 m/s 754 mmHg 89%
07:00 -1°C° 0 mm 3 m/s 754 mmHg 90%
08:00 -1°C° 0 mm 3 m/s 754 mmHg 90%
09:00 -1°C° 0 mm 3 m/s 754 mmHg 87%
10:00 -1°C° 0 mm 3 m/s 754 mmHg 85%
11:00 0°C° 0 mm 3 m/s 753 mmHg 82%
12:00 0°C° 0.2 mm 3 m/s 753 mmHg 87%
13:00 -1°C° 0.2 mm 3 m/s 753 mmHg 91%
14:00 -1°C° 0.2 mm 3 m/s 752 mmHg 96%
15:00 -1°C° 0.4 mm 3 m/s 752 mmHg 96%
16:00 -1°C° 0.4 mm 3 m/s 751 mmHg 97%
17:00 -1°C° 0.4 mm 3 m/s 751 mmHg 98%
18:00 0°C° 0.9 mm 3 m/s 751 mmHg 98%
19:00 +1°C° 0.9 mm 3 m/s 751 mmHg 98%
20:00 +1°C° 0.9 mm 3 m/s 750 mmHg 98%
21:00 +1°C° 0.2 mm 3 m/s 750 mmHg 97%
22:00 +1°C° 0.2 mm 3 m/s 750 mmHg 97%
23:00 +2°C° 0.2 mm 2 m/s 750 mmHg 97%

Depois de amanhã, 30 Novembro, Segunda-feira

Tempo Temperatura Precipitação Vento Pressão Humidade
00:00 +2°C° 0 mm 2 m/s 750 mmHg 97%
01:00 +1°C° 0 mm 2 m/s 751 mmHg 97%
02:00 +1°C° 0 mm 2 m/s 751 mmHg 97%
03:00 +1°C° 0 mm 2 m/s 751 mmHg 97%
04:00 +1°C° 0 mm 2 m/s 751 mmHg 97%
05:00 +1°C° 0 mm 1 m/s 750 mmHg 97%
06:00 -1°C° 0 mm 2 m/s 751 mmHg 96%
07:00 -1°C° 0 mm 2 m/s 751 mmHg 96%
08:00 -1°C° 0 mm 2 m/s 752 mmHg 95%
09:00 -1°C° 0 mm 2 m/s 752 mmHg 92%
10:00 -1°C° 0 mm 3 m/s 752 mmHg 89%
11:00 -1°C° 0 mm 3 m/s 752 mmHg 86%
12:00 -1°C° 0 mm 3 m/s 752 mmHg 86%
13:00 -1°C° 0 mm 3 m/s 753 mmHg 86%
14:00 -1°C° 0 mm 3 m/s 753 mmHg 86%
15:00 -1°C° 0 mm 3 m/s 753 mmHg 85%
16:00 -1°C° 0 mm 3 m/s 753 mmHg 84%
17:00 -1°C° 0 mm 3 m/s 753 mmHg 84%
18:00 -1°C° 0 mm 3 m/s 754 mmHg 84%
19:00 -2°C° 0 mm 3 m/s 754 mmHg 84%
20:00 -2°C° 0 mm 3 m/s 754 mmHg 85%
21:00 -2°C° 0 mm 3 m/s 754 mmHg 85%
22:00 -2°C° 0 mm 3 m/s 754 mmHg 86%
23:00 -4°C° 0 mm 3 m/s 755 mmHg 86%

1 Dezembro, Terça-feira

Tempo Temperatura Precipitação Vento Pressão Humidade
00:00 -4°C° 0 mm 3 m/s 755 mmHg 87%
01:00 -4°C° 0 mm 3 m/s 755 mmHg 88%
02:00 -4°C° 0 mm 3 m/s 755 mmHg 89%
03:00 -4°C° 0 mm 2 m/s 755 mmHg 90%
04:00 -4°C° 0 mm 2 m/s 756 mmHg 91%
05:00 -4°C° 0 mm 2 m/s 756 mmHg 91%
06:00 -4°C° 0 mm 2 m/s 756 mmHg 91%
07:00 -4°C° 0 mm 2 m/s 756 mmHg 91%
08:00 -4°C° 0 mm 2 m/s 757 mmHg 91%
09:00 -4°C° 0 mm 2 m/s 757 mmHg 89%
10:00 -1°C° 0 mm 1 m/s 757 mmHg 87%
11:00 -1°C° 0 mm 1 m/s 757 mmHg 85%
12:00 0°C° 0 mm 1 m/s 758 mmHg 85%
13:00 0°C° 0 mm 1 m/s 758 mmHg 84%
14:00 0°C° 0 mm 1 m/s 758 mmHg 83%
15:00 -1°C° 0 mm 1 m/s 758 mmHg 86%
16:00 -1°C° 0 mm 1 m/s 758 mmHg 88%
17:00 -2°C° 0 mm 1 m/s 758 mmHg 91%
18:00 -2°C° 0 mm 1 m/s 758 mmHg 91%
19:00 -2°C° 0 mm 1 m/s 759 mmHg 90%
20:00 -2°C° 0 mm 1 m/s 759 mmHg 90%
21:00 -2°C° 0 mm 1 m/s 759 mmHg 89%
22:00 -2°C° 0 mm 1 m/s 759 mmHg 88%
23:00 -2°C° 0 mm 1 m/s 759 mmHg 88%

2 Dezembro, Quarta-feira

Tempo Temperatura Precipitação Vento Pressão Humidade
00:00 -3°C° 0 mm 2 m/s 759 mmHg 89%
01:00 -3°C° 0 mm 2 m/s 759 mmHg 90%
02:00 -3°C° 0 mm 2 m/s 759 mmHg 91%
03:00 -2°C° 0.2 mm 2 m/s 759 mmHg 93%
04:00 -2°C° 0.2 mm 2 m/s 759 mmHg 95%
05:00 -2°C° 0.2 mm 2 m/s 759 mmHg 97%
06:00 -2°C° 0.2 mm 2 m/s 759 mmHg 95%
07:00 -2°C° 0.2 mm 2 m/s 759 mmHg 94%
08:00 -2°C° 0.2 mm 3 m/s 759 mmHg 92%
09:00 -1°C° 0 mm 3 m/s 759 mmHg 89%
10:00 -1°C° 0 mm 3 m/s 759 mmHg 86%
11:00 -1°C° 0 mm 3 m/s 759 mmHg 83%
12:00 -2°C° 0 mm 3 m/s 759 mmHg 82%
13:00 -2°C° 0 mm 3 m/s 759 mmHg 82%
14:00 -2°C° 0 mm 3 m/s 758 mmHg 81%
15:00 -2°C° 0 mm 3 m/s 758 mmHg 83%
16:00 -2°C° 0 mm 3 m/s 758 mmHg 84%
17:00 -4°C° 0 mm 3 m/s 758 mmHg 86%
18:00 -4°C° 0.1 mm 3 m/s 759 mmHg 87%
19:00 -4°C° 0.1 mm 3 m/s 759 mmHg 89%
20:00 -4°C° 0.1 mm 3 m/s 759 mmHg 91%
21:00 -4°C° 0.1 mm 3 m/s 759 mmHg 91%
22:00 -4°C° 0.1 mm 3 m/s 759 mmHg 90%
23:00 -4°C° 0.1 mm 3 m/s 759 mmHg 90%

3 Dezembro, Quinta-feira

Tempo Temperatura Precipitação Vento Pressão Humidade
00:00 -4°C° 0.1 mm 3 m/s 759 mmHg 90%
01:00 -4°C° 0.1 mm 3 m/s 759 mmHg 90%
02:00 -5°C° 0.1 mm 3 m/s 759 mmHg 90%
03:00 -5°C° 0.1 mm 3 m/s 758 mmHg 90%
04:00 -5°C° 0.1 mm 3 m/s 758 mmHg 89%
05:00 -5°C° 0.1 mm 3 m/s 758 mmHg 88%
06:00 -5°C° 0 mm 3 m/s 758 mmHg 89%
07:00 -5°C° 0 mm 3 m/s 758 mmHg 89%
08:00 -5°C° 0 mm 3 m/s 758 mmHg 89%
09:00 -5°C° 0 mm 3 m/s 759 mmHg 88%
10:00 -4°C° 0 mm 3 m/s 759 mmHg 88%
11:00 -4°C° 0 mm 3 m/s 759 mmHg 87%
12:00 -4°C° 0 mm 3 m/s 759 mmHg 88%
13:00 -4°C° 0 mm 3 m/s 758 mmHg 88%
14:00 -4°C° 0 mm 3 m/s 758 mmHg 88%
15:00 -4°C° 0 mm 3 m/s 758 mmHg 88%
16:00 -4°C° 0 mm 3 m/s 758 mmHg 87%
17:00 -4°C° 0 mm 3 m/s 758 mmHg 87%
18:00 -4°C° 0 mm 3 m/s 758 mmHg 87%
19:00 -4°C° 0 mm 3 m/s 758 mmHg 87%
20:00 -4°C° 0 mm 3 m/s 758 mmHg 87%
21:00 -4°C° 0 mm 3 m/s 758 mmHg 87%
22:00 -5°C° 0 mm 3 m/s 758 mmHg 87%
23:00 -5°C° 0 mm 3 m/s 758 mmHg 88%
Mostrar mais

Necessitamos do seu Consentimento

A Meteoprog e os seus Fornecedores de Serviços podem armazenar e aceder a dados pessoais como cookies, identificadores do dispositivo ou outras tecnologias semelhantes existentes no seu dispositivo e processar estes dados para personalizar conteúdos e anúncios, assim como funcionalidades nas redes sociais e análise de tráfego.

  • Armazenar e/ou aceder a informações no seu dispositivo

    Os cookies, identificadores do dispositivo ou outras informações podem ser armazenados ou acedidos no seu dispositivo, para os fins acima indicados.

  • Anúncios e conteúdos personalizados, medição de anúncios e conteúdos, dados sobre o público-alvo e desenvolvimento de produtos

    Os anúncios e os conteúdos podem ser personalizados com base num perfil. Podem ser adicionados dados adicionais para uma maior personalização dos anúncios e dos conteúdos. A eficácia dos anúncios e dos conteúdos pode ser medida. Podem ser obtidas informações sobre o público que visualizou os anúncios e os conteúdos. Estes dados podem ser usados para desenvolver ou melhorar sistemas, softwares ou a experiência do utilizador.

Ao clicar em "Eu concordo”, permitirá o uso de cookies, identificadores do dispositivo e web beacons mencionados ou outras tecnologias semelhantes. As configurações do navegador do seu dispositivo podem ser alteradas.

Para certos fins, podem ser invocados interesses legítimos ao invés de consentimento. Pode ler mais informação sobre este assunto na nossa Política de Privacidade e Cookies.